Regional Weather Roundup
Issued by NWS

Home | Current Version | Previous Version | Text Only | Print | Product List | Glossary Off
Versions: 1 2 3 4 5 6 7 8 9 10 11 12 13 14 15 16 17 18 19 20 21 22 23 24 25 26 27 28 29 30 31 32 33 34 35 36 37 38 39 40 41 42 43 44 45 46 47 48 49 50

000
ASUS45 KBOU 272107
RWRCO

WEATHER ROUNDUP FOR COLORADO
NATIONAL WEATHER SERVICE DENVER/BOULDER CO
300 PM MDT SAT MAY 27 2017

NOTE: "FAIR" INDICATES FEW OR NO CLOUDS BELOW 12000 FEET WITH NO
SIGNIFICANT WEATHER AND/OR OBSTRUCTIONS TO VISIBILITY.

COZ001>005-013-030-031-272200-
...NORTHWEST COLORADO...

CITY           SKY/WX    TMP DP  RH WIND       PRES   REMARKS
CRAIG          FAIR      60  33  36 N12G18    30.21R
HAYDEN         CLOUDY    54  37  54 E13       30.21S
MEEKER         LGT RAIN  57  37  47 N10       30.21S
RABBIT EARS PA NOT AVBL
STEAMBOAT SPGS NOT AVBL
WALDEN         NOT AVBL
$$

COZ006>008-011-272200-
...WEST CENTRAL VALLEYS...

CITY           SKY/WX    TMP DP  RH WIND       PRES   REMARKS
GRAND JUNCTION FAIR      73  27  18 W12G20    30.09S
MONTROSE       FAIR      68  28  22 N12       30.13S
EAGLE          PTSUNNY   52  37  58 E15       30.22R
RIFLE          FAIR      63  32  31 VRB7G22   30.15S
DELTA          FAIR      75  20  12 NW18G25   30.09S
NUCLA          FAIR      70  25  18 N6G22     30.14F
$$

COZ017>023-064>068-272200-
...SOUTHWEST COLORADO...

CITY           SKY/WX    TMP DP  RH WIND       PRES   REMARKS
DURANGO        FAIR      71  23  16 W15G32    30.11S
CORTEZ         FAIR      73  26  17 NW9G17    30.10F
PAGOSA SPRINGS PTSUNNY   63  19  18 NW15G23   30.14S
TELLURIDE      FAIR      57  15  19 NW5G25    30.26S
WOLF CREEK PAS NOT AVBL
$$

COZ009-010-012-014-032>034-037-058>063-272200-
...CENTRAL COLORADO...

CITY           SKY/WX    TMP DP  RH WIND       PRES   REMARKS
ASPEN          CLOUDY    46  40  79 SE12      30.22R
BUENA VISTA    FAIR      60  22  23 W21G33    30.15R
COPPER MTN     NOT AVBL
BERTHOUD PASS  NOT AVBL
COTTONWOOD PAS NOT AVBL
GUNNISON       FAIR      61  22  22 W18G25    30.16R
KREMMLING      NOT AVBL
LEADVILLE      FAIR      42  22  44 VRB3      30.26S
SALIDA         PTSUNNY   65  17  15 W14G25    30.18S
SUNLIGHT       NOT AVBL
WILKERSON PASS NOT AVBL
$$

COZ069>075-272200-
...SAN LUIS VALLEY/SANGRE DE CRISTO MOUNTAINS...

CITY           SKY/WX    TMP DP  RH WIND       PRES   REMARKS
ALAMOSA        CLOUDY    62  30  29 NW17G33   30.12R
DEL NORTE      NOT AVBL
LA VETA PASS   NOT AVBL
SAGUACHE       NOT AVBL
$$

COZ035-036-038>040-272200-
...NORTHERN COLORADO FRONT RANGE...

CITY           SKY/WX    TMP DP  RH WIND       PRES   REMARKS
DENVER INTL AP PTSUNNY   49  45  86 CALM      30.18S
DMNS CITY PARK   N/A     52  45  77 E8        30.17S
AURORA         PTSUNNY   46  45  97 E5        30.18F
FRONT RANGE AP LGT RAIN  48  46  93 E7G18     30.17F
ERIE MUNI ARPT NOT AVBL
BOULDER MUN AP NOT AVBL
CENTENNIAL     PTSUNNY   48  45  89 NE7       30.18F
BROOMFIELD     PTSUNNY   52  45  76 VRB3      30.18R
FORT COLLINS   CLOUDY    61  36  39 N13       30.14R
LONGMONT       NOT AVBL
$$

COZ041-046-047-076>085-087-088-272200-
...PIKES PEAK/PALMER DIVIDE AND SOUTHERN FOOTHILLS...

CITY           SKY/WX    TMP DP  RH WIND       PRES   REMARKS
COLO. SPRINGS  LGT RAIN  49  45  86 E9        30.16R
A. F. ACADEMY  CLOUDY    46  41  81 N18G28    30.18R
SCHRIEVER AFB  SHOWER    47  44  87 NE16G24   30.17S
CHEYENNE MTN   PTSUNNY   48  43  81 N13       30.10F
ELLICOTT       LGT SNOW N/A N/A N/A N18G25    30.15R
FALCON         CLOUDY    44  40  85 N20G28    30.18S
FORT CARSON    LGT RAIN  48  44  86 NE7       30.12S
LIMON          CLOUDY    50  46  86 N16       30.14R
MONUMENT HILL  NOT AVBL
CANON CITY     NOT AVBL
WALSENBURG     CLOUDY    63  48  59 N18G25    30.06S
TRINIDAD       FAIR      67  46  47 E9G17     30.04S
$$

COZ042>045-048>051-090-091-272200-
...NORTHEAST COLORADO...

CITY           SKY/WX    TMP DP  RH WIND       PRES   REMARKS
GREELEY ARPT   LGT RAIN  59  40  49 N9        30.14R
AKRON          CLOUDY    58  44  60 N12       30.10R
BURLINGTON     PTSUNNY   65  48  54 N18G25    30.05R
WRAY           FAIR      61  45  55 N10       30.05R
YUMA           NOT AVBL
STERLING       NOT AVBL
HOLYOKE        NOT AVBL
FORT MORGAN    CLOUDY    57  42  57 NW5       30.12R
$$

COZ086-089-092>099-272200-
...SOUTHEAST COLORADO...

CITY           SKY/WX    TMP DP  RH WIND       PRES   REMARKS
PUEBLO         CLOUDY    59  48  67 NE24G32   30.08R
LA JUNTA       CLOUDY    73  47  39 NE16G22   30.01R
LAMAR          PTSUNNY   73  49  42 NE15G21   29.97F
SPRINGFIELD      N/A     71  52  50 E12       29.99F
$$



USA.gov is the U.S. government's official web portal to all federal, state and local government web resources and services.